Weather in Kharovsk

Russia / Vologda Oblast     59°57′02″N   40°12′22″E
temp.,
°C
wind,
m/s
gust,
m/s
humid.,
%
clouds,
%
prec.,
mm/h
press.,
hPa
HPBL,
m
28 september, tue
tue2800:00+6ene279135 0.1 1031468
03:00+3ene24974 0.1 103288
06:00+2ene239751 0.0 103472
09:00+6ne238564 0.0 1034293
12:00+10ne126566 0.0 1034749
15:00+11n2262100 0.0 10341052
18:00+8n2481100 0.0 1034103
21:00+8n1179100 0.0 103437
29 september, wed
wed2900:00+8nnw117899 0.0 103519
03:00+5nnw229476 0.0 103524
06:00+4nw229620 0.0 103524
09:00+8nw2382100 0.0 1035237
12:00+10nw237396 0.0 1035487
15:00+12nw246999 0.0 1034725
18:00+9wnw2483100 0.0 1033101
21:00+9nnw2588100 0.0 1033149
30 september, thu
thu3000:00+8nnw2391100 0.0 1034104
03:00+8nnw2392100 0.0 1034103
06:00+8nw2492100 0.0 1034128
09:00+10nnw248394 0.0 1034235
12:00+13nnw346844 0.0 1034593
15:00+13nw346824 0.0 1033595
18:00+10nw238434 0.0 103380
21:00+7nw22945 0.0 103323
1 october, fri
fri100:00+7nw11955 0.0 103414
03:00+6wnw11975 0.0 103420
06:00+6wnw11975 0.0 103319
09:00+9wnw128013 0.0 1033208
12:00+13w236538 0.0 1033665
15:00+14wsw236256 0.0 1032878
18:00+9sw228660 0.0 103128
21:00+7sw249542 0.0 103276
2 october, sat
sat200:00+6sw24955 0.0 103178
03:00+6sw239631 0.0 103153
06:00+5sw249755 0.0 103183
09:00+8sw368267 0.0 1031244
12:00+12sw356248 0.0 1030718
15:00+13sw35575 0.0 1029968
18:00+8ssw23815 0.0 102952
21:00+6ssw28915 0.0 1030173